Weather History for Moline, IL

Change the Weather History Date:

Monday, February 10, 2014

  Actual Average Record
Temperature  
Mean Temperature -4 °F 25 °F  
Max Temperature 7 °F 34 °F 62 °F (1976)
Min Temperature -16 °F 17 °F -16 °F (1899)
Degree Days  
Heating Degree Days 69 40  
Month to date heating degree days 590 409  
Since 1 July heating degree days 4857 4143  
Cooling Degree Days 0 0  
Month to date cooling degree days 0 0  
Year to date cooling degree days 0 0  
Moisture  
Dew Point -11 °F    
Average Humidity 68    
Maximum Humidity 81    
Minimum Humidity 55    
Precipitation  
Precipitation 0.00 in 0.05 in 1.13 in (1960)
Month to date precipitation 0.79 0.46  
Year to date precipitation 1.96 1.95  
Snow  
Snow 0.00 in 0.30 in - ()
Month to date snowfall 13.3 2.8  
Since 1 July snowfall 45.8 22.7  
Snow Depth 9.00 in    
Sea Level Pressure  
Sea Level Pressure 30.51 in    
Wind  
Wind Speed 6 mph (WNW)    
Max Wind Speed 12 mph    
Max Gust Speed 15 mph    
Visibility 10 miles    
Events      
T = Trace of Precipitation, MM = Missing Value Source: NWS Daily Summary

Daily Weather History Graph

Daily Weather History Graph

Search for Another Location

Airport:

Trip Planner

Search our weather history database for the weather conditions in past years. The results will help you decide how hot, cold, wet, or windy it might be!

Date:

Astronomy

Feb. 10, 2014 Rise Set
Actual Time 7:03 AM CST 5:29 PM CST
Civil Twilight 6:34 AM CST 5:58 PM CST
Nautical Twilight 6:02 AM CST 6:30 PM CST
Astronomical Twilight 5:29 AM CST 7:03 PM CST
Moon 1:57 PM CST (2/10) 3:57 AM CST (2/10)
Length of Visible Light 11h 23m
Length of Day
10h 26m
Waxing Gibbous, 85% of the Moon is Illuminated
Feb 10
Waxing Gibbous
Feb 14
Full
Feb 22
Last Quarter
Mar 1
New
Mar 8
First Quarter

Hourly Weather History & Observations

Time (CST) Temp. Windchill Dew Point Humidity Pressure Visibility Wind Dir Wind Speed Gust Speed Precip Events Conditions
12:52 AM -4.0 °F -17.8 °F -11.9 °F 69% 30.42 in 10.0 mi WNW 6.9 mph - N/A   Clear
1:52 AM -6.0 °F -16.9 °F -11.9 °F 75% 30.43 in 10.0 mi West 4.6 mph - N/A   Clear
2:52 AM -9.0 °F -23.8 °F -14.1 °F 79% 30.45 in 10.0 mi West 6.9 mph - N/A   Clear
3:52 AM -8.0 °F -19.2 °F -13.0 °F 79% 30.47 in 10.0 mi West 4.6 mph - N/A   Clear
4:52 AM -14.1 °F -28.3 °F -18.0 °F 82% 30.49 in 10.0 mi West 5.8 mph - N/A   Clear
5:52 AM -14.1 °F -26.3 °F -18.9 °F 79% 30.51 in 8.0 mi WSW 4.6 mph - N/A   Clear
6:52 AM -11.9 °F -27.3 °F -16.1 °F 82% 30.51 in 9.0 mi West 6.9 mph - N/A   Clear
7:52 AM -9.9 °F -19.2 °F -14.1 °F 82% 30.51 in 9.0 mi West 3.5 mph - N/A   Clear
8:52 AM -9.9 °F -24.9 °F -15.0 °F 78% 30.53 in 10.0 mi West 6.9 mph - N/A   Clear
9:52 AM -4.0 °F -19.0 °F -11.0 °F 72% 30.53 in 10.0 mi West 8.1 mph - N/A   Clear
10:52 AM -0.9 °F -14.1 °F -9.9 °F 66% 30.54 in 10.0 mi West 6.9 mph - N/A   Clear
11:52 AM 1.9 °F -9.2 °F -9.0 °F 60% 30.53 in 10.0 mi West 5.8 mph - N/A   Clear
12:52 PM 5.0 °F -6.9 °F -8.0 °F 55% 30.52 in 10.0 mi West 6.9 mph - N/A   Clear
1:52 PM 7.0 °F -4.5 °F -6.0 °F 55% 30.50 in 10.0 mi WNW 6.9 mph - N/A   Clear
2:52 PM 7.0 °F -7.5 °F -7.1 °F 53% 30.49 in 10.0 mi NW 10.4 mph - N/A   Clear
3:52 PM 6.1 °F -7.8 °F -8.0 °F 53% 30.51 in 10.0 mi WNW 9.2 mph - N/A   Clear
4:52 PM 5.0 °F -10.0 °F -8.0 °F 55% 30.51 in 10.0 mi NW 10.4 mph - N/A   Clear
5:52 PM 1.9 °F -10.6 °F -8.0 °F 63% 30.54 in 10.0 mi WNW 6.9 mph - N/A   Clear
6:52 PM 1.0 °F -11.7 °F -9.0 °F 63% 30.54 in 10.0 mi NW 6.9 mph - N/A   Clear
7:52 PM -0.9 °F -12.7 °F -9.9 °F 66% 30.53 in 10.0 mi WNW 5.8 mph - N/A   Clear
8:52 PM -2.0 °F -15.4 °F -11.0 °F 66% 30.56 in 10.0 mi WNW 6.9 mph - N/A   Clear
9:52 PM -7.1 °F -19.9 °F -13.0 °F 75% 30.57 in 10.0 mi West 5.8 mph - N/A   Clear
10:52 PM -4.0 °F -14.6 °F -11.9 °F 69% 30.56 in 10.0 mi WNW 4.6 mph - 0.00 in   Clear
11:52 PM -2.9 °F - -11.0 °F 68% 30.54 in 10.0 mi Calm Calm - N/A   Clear